Regional Weather Roundup
Issued by NWS Mobile, AL

Home | Current Version | Previous Version | Text Only | Print | Product List | Glossary On
Versions: 1 2 3 4 5 6 7 8 9 10 11 12 13 14 15 16 17 18 19 20 21 22 23 24 25 26 27 28 29 30 31 32 33 34 35 36 37 38 39 40 41 42 43 44 45 46 47 48 49 50
551
ASUS44 KMOB 281012
RWRMOB
REGIONAL WEATHER ROUNDUP
NATIONAL WEATHER SERVICE MOBILE AL
500 AM CDT SAT MAY 28 2016

NOTE: "FAIR" INDICATES FEW OR NO CLOUDS BELOW 12,000 FEET WITH NO
      SIGNIFICANT WEATHER AND/OR OBSTRUCTIONS TO VISIBILITY.

  * THESE STATIONS ARE PART OF THE UNIVERSITY OF SOUTH ALABAMA
    MESONET AND ARE NOT UNDER NWS OR FAA QUALITY CONTROL.

ALZ061>064-281100-
COASTAL ALABAMA

CITY           SKY/WX    TMP DP  RH WIND       PRES   REMARKS
MOBILE REG APT CLOUDY    70  67  90 SE5       30.00R
BROOKLEY FIELD CLOUDY    70  68  93 SW3       30.00R
USA CAMPUS*    NOT AVBL
DOG RIVER*     NOT AVBL


CITY           SKY/WX    TMP DP  RH WIND       PRES   REMARKS
MOUNT VERNON*  NOT AVBL
SARALAND*      NOT AVBL
BAY MINETTE*   NOT AVBL
LOXLEY*        NOT AVBL
ROBERTSDALE*   NOT AVBL
FAIRHOPE*      NOT AVBL
ELBERTA*       NOT AVBL
FOLEY*         NOT AVBL
GRAND BAY*     NOT AVBL
DAUPHIN ISLND* NOT AVBL
BON SCOUR NWR* NOT AVBL
GULF SHORES    PTCLDY    66  66  99 S5        29.99R

$$

ALZ051>060-281100-
INTERIOR SOUTHWEST AND SOUTH CENTRAL ALABAMA

CITY           SKY/WX    TMP DP  RH WIND       PRES   REMARKS
GREENVILLE     CLOUDY    67  63  87 CALM      30.02R
EVERGREEN      CLOUDY    67  65  93 CALM      30.02R
CASTLEBERRY*   NOT AVBL
ATMORE*        NOT AVBL
DIXIE*         NOT AVBL
ANDALUSIA/OPP  CLOUDY    73  67  81 CALM      30.03R
ANDALUSIA*     NOT AVBL
FLORALA APT    CLOUDY    69  66  90 CALM      30.05S
FLORALA*       NOT AVBL

$$

FLZ001>006-281100-
WESTERN FLORIDA PANHANDLE

CITY           SKY/WX    TMP DP  RH WIND       PRES   REMARKS
PENSACOLA      MOCLDY    73  67  81 E6        29.99F
NAS PENSACOLA  NOT AVBL
MILTON         CLOUDY    67  67 100 CALM      30.01
WHTNG S FIELD    N/A    N/A N/A N/A MISG      30.01S


CITY           SKY/WX    TMP DP  RH WIND       PRES   REMARKS
WALNUT HILL*   NOT AVBL
JAY*           NOT AVBL
DUKE FIELD     CLOUDY    69  65  86 E3        30.01S
CRESTVIEW      CLOUDY    68  65  90 NE3       30.03S
VALPARAISO     MOCLDY    74  66  77 E6        30.01S
DESTIN         CLOUDY    76  71  85 E5        30.01S

$$

MSZ076-079-281100-
INTERIOR SOUTHEAST MISSISSIPPI

CITY           SKY/WX    TMP DP  RH WIND       PRES   REMARKS
LEAKESVILLE*   NOT AVBL
AGRICOLA*      NOT AVBL

$$

MARINE OBSERVATIONS

STATION/POSITION TIME  TEMP    WIND        PRES    WAVE
                       AIR SEA DIR/SP/G            HT/PER
                 (UTC) (F)     (DEG/KT/KT) (MB)    (FT/S)
PASCAGOULA       0900   79     150/  8/ 10 1014.7R
PETIT BOIS ISLND 0900   78     160/  9/ 11 1015.6R
GRAND BAY        0800   79     180/  6     1017.0S
KATRINA CUT      0900   78     160/  9     1015.6F
CEDAR POINT      0900   78     150/  6     1014.9F
E DAUPHIN ISLAND 1000   78     160/  8/  9 1015.3R
MIDDLE BAY LIGHT 0900   77     110/  7     1014.9F
USCG MOBILE BAY  0900   75 80   CALM  /  2 1015.6F
STATE DOCKS      0900   74 80              1015.0F
MEAHER PARK      0900   73     110/  4     1014.9F
WEEKS BAY        0800   69                   N/A
FORT MORGAN      0900   78     180/  8/  9 1014.6F
12 S ORANGE BCH  0950   78 80  150/  8/ 10 1015.0S   3/ 6
PENSACOLA BAY    0900      81   30/  3/  4 1016.1R
64 S DAUPHIN ISL 0900   78 79  140/ 10/ 12 1015.1R

$$

SELECTED LOCATIONS ACROSS THE REGION

CITY           SKY/WX    TMP DP  RH WIND       PRES   REMARKS
NEW ORLEANS    CLOUDY    75  71  87 SE13      29.96F
GULFPORT       CLEAR     77  67  71 S7        29.98R
PASCAGOULA AP  PTCLDY    67  66  97 CALM      29.99R
PASCAGOULA*    NOT AVBL
HATTIESBURG    CLEAR     70  67  90 CALM      29.98R
LAUREL         CLEAR     70  64  83 S7        29.98S
MERIDIAN       CLOUDY    75  67  76 S10       29.97R
JACKSON        MOCLDY    72  67  84 SE5       29.95R
MONTGOMERY     PTCLDY    69  65  86 E6        30.03R
TROY           MOCLDY    69  64  84 E6        30.05S
KINSTON*       NOT AVBL
GENEVA*        NOT AVBL
ASHFORD*       NOT AVBL
DOTHAN         CLEAR     70  63  78 E7        30.08S
PANAMA CITY    PTCLDY    70  65  84 NE5       30.01S

$$





USA.gov is the U.S. government's official web portal to all federal, state and local government web resources and services.